00001 3.34 0.12 K03CR 317.77388 74.06844 80.47940 10.58343 0.0795184 0.21425740 2.7659574 MPC 24219 4676 62 1839-1994 0.54 M-v 30 Bowell 0000 (1) Ceres 00003 5.33 0.32 K03CR 209.71388 247.92154 170.12899 12.97168 0.2586136 0.22624986 2.6673325 MPC 24084 4741 65 1839-1993 0.56 M-c 08 Bowell 0000 (3) Juno 00004 3.20 0.32 K03CR 15.64391 150.22064 103.93760 7.13329 0.0886425 0.27160711 2.3614312 MPC 24219 5168 56 1841-1993 0.56 M-c 18 Bowell 0000 (4) Vesta 00005 6.85 0.15 K03CR 27.17103 357.61033 141.69131 5.36975 0.1933668 0.23872885 2.5735510 0 MPO 41498 2178 100 1845-2002 0.56 M-v 38h Goffin 0000 (5) Astraea 00006 5.71 0.24 K03CR 65.96111 238.94454 138.84621 14.76742 0.2012031 0.26095085 2.4252894 MPC 24219 3581 59 1869-1994 0.53 M-c 08 Bowell 0000 (6) Hebe 00007 5.51 0.15 K03CR 82.35566 145.33722 259.83645 5.52223 0.2300271 0.26727790 2.3868622 MPC 24084 3313 57 1850-1993 0.57 M-c 08 Bowell 0000 (7) Iris 00009 6.28 0.17 K03CR 220.68933 5.52110 68.98687 5.57628 0.1219472 0.26734597 2.3864570 0 MPO 25662 2131 96 1822-2001 0.54 M-v 38h Goffin 0000 (9) Metis 00010 5.43 0.15 K03CR 238.09969 313.74641 283.65352 3.84372 0.1193332 0.17746705 3.1361072 0 MPC 35055 2261 104 1849-1999 0.53 M-v 38h Goffin 0000 (10) Hygiea 00011 6.55 0.15 K03CR 282.18637 195.47699 125.63667 4.62449 0.0996349 0.25666704 2.4522005 MPC 24085 2613 61 1850-1993 0.57 M-c 08 Bowell 0000 (11) Parthenope 00012 7.24 0.22 K03CR 25.29013 69.77435 235.55044 8.36188 0.2207094 0.27636181 2.3342679 MPC 24085 995 49 1850-1994 0.62 M-c 08 Bowell 0000 (12) Victoria 00015 5.28 0.23 K03CR 80.43793 97.25929 293.48959 11.74539 0.1855110 0.22911253 2.6450679 0 MPO 25662 2071 91 1851-2001 0.52 M-v 38h Goffin 0000 (15) Eunomia 00016 5.90 0.20 K03CR 264.02565 228.15619 150.35312 3.09538 0.1395352 0.19754304 2.9198568 0 MPC 35055 1831 96 1852-1998 0.53 M-v 38h Goffin 0000 (16) Psyche 00017 7.76 0.15 K03CR 322.30418 135.85754 125.62232 5.58707 0.1339733 0.25390758 2.4699355 0 MPC 38747 869 73 1853-1999 0.88 M-v 38h Williams 0000 (17) Thetis 00018 6.51 0.25 K03CR 120.43254 227.87362 150.55776 10.12820 0.2175330 0.28314081 2.2968594 0 MPO 53552 4910 95 1852-2003 0.55 M-v 38h Goffin 0000 (18) Melpomene 00019 7.13 0.10 K03CR 190.81604 182.14073 211.38157 1.57327 0.1593395 0.25839446 2.4412593 0 MPO 53552 2354 94 1852-2003 0.57 M-v 38h Goffin 0000 (19) Fortuna 00020 6.50 0.25 K03CR 82.44149 255.66593 206.52642 0.70655 0.1432542 0.26362302 2.4088726 0 MPO 25662 1670 96 1852-2001 0.54 M-v 38h Goffin 0000 (20) Massalia 00021 7.35 0.11 K03CR 331.59207 250.29364 80.92225 3.06435 0.1637831 0.25936924 2.4351389 0 MPO 2601 814 58 1866-2000 0.67 M-v 38h Williams 0000 (21) Lutetia 00022 6.45 0.21 K03CR 164.13785 356.44297 66.24815 13.71201 0.1030602 0.19879896 2.9075463 0 MPO 53552 1675 90 1852-2003 0.56 M-v 38h Goffin 0000 (22) Kalliope 00026 7.5 0.15 K03CR 270.87729 192.96766 45.91349 3.56101 0.0878609 0.22759129 2.6568414 0 MPO 50329 1192 105 1853-2003 0.56 M-v 38h Goffin 0000 (26) Proserpina 00027 7.0 0.15 K03CR 240.05292 356.52379 94.81449 1.58365 0.1715905 0.27407537 2.3472321 0 MPO 4876 1618 79 1853-2000 0.53 M-v 38h Goffin 0000 (27) Euterpe 00033 8.55 0.33 K03CR 285.35722 338.32524 8.61079 1.87046 0.3373364 0.20321447 2.8652749 0 MPO 9657 635 73 1854-2001 0.55 M-v 38h Goffin 0000 (33) Polyhymnia 00039 6.1 0.15 K03CR 182.83946 209.57259 157.17700 10.38431 0.1132161 0.21386777 2.7693158 0 MPC 30777 3843 90 1856-1996 0.52 M-v 38h Goffin 0000 (39) Laetitia 00040 7.0 0.15 K03CR 291.25990 269.29193 94.31147 4.25550 0.0471040 0.28871263 2.2672123 0 MPC 31001 3339 81 1856-1996 0.52 M-v 38h Goffin 0000 (40) Harmonia 00041 7.12 0.10 K03CR 11.92071 46.09312 178.17468 15.76715 0.2715982 0.21442646 2.7645034 0 MPC 31778 618 67 1856-1997 0.55 M-v 38h Goffin 0000 (41) Daphne 00043 7.93 0.11 K03CR 250.81672 15.75177 264.98563 3.46719 0.1678739 0.30123136 2.2039543 0 MPC 25032 882 78 1857-1994 1.01 M-c 08 Goffin 0000 (43) Ariadne 00044 7.03 0.46 K03CR 60.60439 342.60860 131.61179 3.70305 0.1489635 0.26123116 2.4235542 0 MPO 3854 1410 81 1857-2000 0.52 M-v 38h Goffin 0000 (44) Nysa 00049 7.8 0.15 K03CR 307.04980 110.19959 286.21247 3.18044 0.2340455 0.18182113 3.0858381 0 MPO 2601 458 55 1863-2000 0.84 M-v 38h Williams 0000 (49) Pales 00051 7.35 0.08 K03CR 19.05377 2.46224 176.17601 9.97201 0.0668679 0.27090013 2.3655379 0 MPC 31001 3595 87 1858-1997 0.52 M-v 38h Goffin 0000 (51) Nemausa 00064 7.67 0.48 K03CR 221.58364 179.02403 309.44823 1.30759 0.1233930 0.22423310 2.6833021 0 MPC 25033 197 45 1894-1993 0.88 M-c 08 Bowell 0000 (64) Angelina 00067 8.28 0.15 K03CR 254.54781 106.21029 202.72999 6.02554 0.1844078 0.26148206 2.4220036 0 MPC 26379 412 63 1861-1994 1.00 M-v 38d Goffin 0000 (67) Asia 00079 7.96 0.25 K03CR 225.75800 200.42880 206.81165 4.62245 0.1925488 0.25794648 2.4440850 MPC 22665 844 78 1863-1991 1.05 M-c 08 Goffin 0000 (79) Eurynome 00080 7.98 0.15 K03CR 311.14905 139.19764 218.82933 8.66410 0.2011371 0.28338517 2.2955388 MPC 23111 820 71 1864-1993 0.98 M-v 38 Goffin 0000 (80) Sappho 00088 7.04 0.14 K03CR 289.96441 36.65031 276.78101 5.21814 0.1641105 0.21409918 2.7673200 0 MPC 31001 998 68 1866-1997 0.54 M-v 38h Goffin 0000 (88) Thisbe 00089 6.60 0.15 K03CR 222.80849 45.09687 311.66158 16.14094 0.1833969 0.24204040 2.5500232 0 MPC 30777 722 59 1866-1995 0.54 M-v 38h Goffin 0000 (89) Julia 00092 6.61 0.15 K03CR 286.73255 242.54058 101.84680 9.92239 0.1000329 0.17305531 3.1891829 0 MPO 2601 300 58 1871-1999 0.92 M-v 38h Williams 0000 (92) Undina 00093 7.7 0.15 K03CR 349.09070 275.71091 4.16698 8.55723 0.1407961 0.21559061 2.7545426 0 MPO 53552 720 65 1867-2003 0.56 M-v 38h Goffin 0000 (93) Minerva 00100 7.67 0.15 K03CR 309.14567 185.96471 127.35092 6.43030 0.1644552 0.18124738 3.0923470 1 MPC 27886 263 71 1868-1996 1.00 M-v 38d Goffin 0000 (100) Hekate 00106 7.41 0.15 K03CR 329.51370 329.57659 62.40826 4.61571 0.1748279 0.17472991 3.1687736 0 MPO 2601 332 49 1871-2000 0.75 M-v 38h Williams 0000 (106) Dione 00128 7.49 0.15 K03CR 303.12079 302.58784 76.47116 6.25382 0.1277523 0.21617258 2.7495965 0 MPC 25186 353 64 1872-1994 1.01 M-v 38 Goffin 0000 (128) Nemesis 00135 8.23 0.15 K03CR 319.48595 340.15213 343.91122 2.30564 0.2062791 0.26044800 2.4284101 0 MPO 595 522 71 1874-1999 0.56 M-v 38h Goffin 0000 (135) Hertha 00156 8.64 0.15 K03CR 338.53290 337.73570 242.20278 9.74657 0.2224227 0.21819570 2.7325739 MPC 22796 185 47 1875-1992 0.98 M-c 08 Goffin 0000 (156) Xanthippe 00173 7.66 0.01 K03CR 260.26654 228.17728 148.36529 14.20707 0.2083962 0.21710088 2.7417530 0 MPC 27289 384 66 1877-1995 0.94 M-v 38d Goffin 0000 (173) Ino 00192 7.13 0.03 K03CR 317.28452 29.76163 343.46350 6.82561 0.2474599 0.26468532 2.4024230 0 MPC 31001 864 67 1847-1996 0.53 M-v 38h Goffin 0000 (192) Nausikaa 00230 7.35 0.27 K03CR 323.27496 139.04199 239.98423 9.43378 0.0617930 0.26800481 2.3825443 0 MPC 31001 797 64 1882-1996 0.53 M-v 38h Goffin 0000 (230) Athamantis 00270 8.75 0.15 K03CR 268.18275 80.46365 254.57577 2.36522 0.1506437 0.30245478 2.1980071 0 MPO 35428 719 63 1887-2002 0.55 M-v 38h Goffin 0000 (270) Anahita 00324 6.82 0.09 K03CR 274.81900 44.10522 328.05734 11.10719 0.3383586 0.22432102 2.6826009 0 MPC 31001 1129 62 1892-1997 0.53 M-v 38h Goffin 0000 (324) Bamberga 00337 8.74 0.19 K03CR 17.41684 98.67087 355.57106 7.85221 0.1379062 0.26791410 2.3830821 0 MPO 4876 524 52 1892-1999 0.52 M-v 38h Goffin 0000 (337) Devosa 00344 8.08 0.15 K03CR 296.56788 237.33344 48.25901 18.35302 0.3155891 0.23573012 2.5953304 1 MPO 2601 172 27 1892-2000 0.91 M-v 38h Williams 0000 (344) Desiderata 00346 7.13 0.15 K03CR 301.20547 290.17424 92.17983 8.76013 0.1029043 0.21082810 2.7958705 MPC 22200 246 54 1892-1992 0.94 M-v 38 Goffin 0000 (346) Hermentaria 00349 5.93 0.37 K03CR 120.41810 346.30970 32.56678 8.24418 0.0857127 0.19668495 2.9283431 0 MPC 31001 1414 72 1892-1996 0.53 M-v 38h Goffin 0000 (349) Dembowska 00354 6.44 0.37 K03CR 233.95173 6.82565 140.51564 18.38466 0.1125835 0.21039275 2.7997261 0 MPC 31001 1700 75 1893-1997 0.55 M-v 38h Goffin 0000 (354) Eleonora 00387 7.41 0.15 K03CR 323.28320 157.67155 128.33359 18.13295 0.2364825 0.21744196 2.7388851 MPC 24086 284 52 1894-1993 0.93 M-c 08 Goffin 0000 (387) Aquitania 00419 8.42 0.15 K03CR 293.37423 44.45836 229.37350 3.92334 0.2523495 0.23554587 2.5966837 0 MPO 53552 789 59 1896-2003 0.55 M-v 38h Goffin 0000 (419) Aurelia 00599 8.71 0.15 K03CR 331.23993 293.08365 44.69879 16.67059 0.2936336 0.21362282 2.7714324 1 MPO 2602 182 29 1906-1999 0.81 M-v 38h Williams 0000 (599) Luisa 00747 7.69 0.15 K03CR 265.30668 275.60541 130.21197 18.17848 0.3445302 0.19032983 2.9931707 0 MPO 38158 570 51 1913-2002 0.57 M-v 38h Goffin 0000 (747) Winchester